Weather History for Pagosa Springs, CO

Change the Weather History Date:

Wednesday, January 1, 2014

  Actual Average (KDRO) Record (KDRO)
Temperature  
Mean Temperature 28 °F 24 °F  
Max Temperature 42 °F 37 °F 68 °F (1997)
Min Temperature 14 °F 10 °F -26 °F (2011)
Degree Days  
Heating Degree Days 37 41  
Month to date heating degree days 41  
Since 1 July heating degree days 2915  
Cooling Degree Days 0 0  
Month to date cooling degree days 0  
Year to date cooling degree days 0  
Moisture  
Dew Point 14 °F    
Average Humidity 63    
Maximum Humidity 97    
Minimum Humidity 29    
Precipitation  
Precipitation 0.00 in 0.04 in 0.31 in (1977)
Month to date precipitation 0.04  
Year to date precipitation 0.04  
Sea Level Pressure  
Sea Level Pressure 30.18 in    
Wind  
Wind Speed 1 mph (South)    
Max Wind Speed 7 mph    
Max Gust Speed -    
Visibility 10 miles    
Events Thunderstorm    
T = Trace of Precipitation, MM = Missing Value Source: NWS Daily Summary

Daily Weather History Graph

Daily Weather History Graph

Search for Another Location

Airport:

Trip Planner

Search our weather history database for the weather conditions in past years. The results will help you decide how hot, cold, wet, or windy it might be!

Date:

Astronomy

Jan. 01, 2014 Rise Set
Actual Time 7:22 AM MST 5:01 PM MST
Civil Twilight 6:53 AM MST 5:30 PM MST
Nautical Twilight 6:20 AM MST 6:03 PM MST
Astronomical Twilight 5:49 AM MST 6:34 PM MST
Moon 7:16 AM MST (1/1) 5:48 PM MST (1/1)
Length of Visible Light 10h 37m
Length of Day
9h 39m
New Moon, 0% of the Moon is Illuminated
Jan 1
New Moon
Jan 7
First Quarter
Jan 15
Full
Jan 23
Last Quarter
Jan 30
New

Hourly Weather History & Observations

Time (MST) Temp. Windchill Dew Point Humidity Pressure Visibility Wind Dir Wind Speed Gust Speed Precip Events Conditions
12:15 AM 21.7 °F - 16.2 °F 79% 30.16 in 10.0 mi Calm Calm - N/A   Unknown
12:35 AM 24.4 °F - 17.1 °F 73% 30.16 in 10.0 mi Calm Calm - N/A   Unknown
12:55 AM 25.5 °F - 16.7 °F 69% 30.14 in 10.0 mi Calm Calm - N/A   Unknown
1:15 AM 25.0 °F - 16.3 °F 70% 30.15 in 10.0 mi Calm Calm - N/A   Unknown
1:35 AM 23.2 °F - 16.7 °F 76% 30.15 in 10.0 mi Calm Calm - N/A   Unknown
1:55 AM 23.4 °F - 16.5 °F 75% 30.15 in 10.0 mi Calm Calm - N/A   Unknown
2:15 AM 22.6 °F - 16.3 °F 77% 30.15 in 10.0 mi Calm Calm - N/A   Unknown
2:35 AM 21.7 °F - 16.3 °F 80% 30.15 in 10.0 mi Calm Calm - N/A   Unknown
2:55 AM 19.2 °F - 15.8 °F 87% 30.13 in 10.0 mi Calm Calm - N/A   Unknown
3:15 AM 21.7 °F - 15.8 °F 78% 30.13 in 10.0 mi Calm Calm - N/A   Unknown
3:35 AM 18.0 °F - 14.0 °F 84% 30.13 in 10.0 mi Calm Calm - N/A   Unknown
3:55 AM 17.6 °F - 14.7 °F 88% 30.12 in 10.0 mi Calm Calm - N/A   Unknown
4:15 AM 16.2 °F - 14.7 °F 94% 30.12 in 10.0 mi Calm Calm - N/A   Unknown
4:35 AM 18.0 °F - 15.4 °F 90% 30.12 in 10.0 mi Calm Calm - N/A   Unknown
4:55 AM 16.2 °F - 14.5 °F 93% 30.12 in 10.0 mi Calm Calm - N/A   Unknown
5:15 AM 16.0 °F 8.8 °F 14.2 °F 93% 30.12 in 10.0 mi NNE 4.6 mph - N/A   Unknown
5:35 AM 14.9 °F - 13.5 °F 94% 30.11 in 10.0 mi Calm Calm - N/A   Unknown
5:55 AM 17.8 °F - 14.9 °F 88% 30.12 in 10.0 mi Calm Calm - N/A   Unknown
6:15 AM 15.3 °F - 14.5 °F 97% 30.12 in 10.0 mi Calm Calm - N/A   Unknown
6:35 AM 15.3 °F - 14.0 °F 95% 30.12 in 10.0 mi Calm Calm - N/A   Unknown
6:55 AM 15.1 °F - 14.0 °F 95% 30.13 in 10.0 mi Calm Calm - N/A   Unknown
7:15 AM 14.9 °F - 13.6 °F 95% 30.13 in 10.0 mi Calm Calm - N/A   Unknown
7:35 AM 14.7 °F - 13.3 °F 94% 30.14 in 10.0 mi Calm Calm - N/A   Unknown
7:55 AM 14.7 °F - 13.3 °F 94% 30.15 in 10.0 mi Calm Calm - N/A   Unknown
8:15 AM 17.4 °F - 16.2 °F 95% 30.15 in 10.0 mi Calm Calm - N/A   Unknown
8:35 AM 19.9 °F - 18.1 °F 93% 30.16 in 10.0 mi Calm Calm - N/A   Unknown
8:55 AM 19.9 °F - 15.6 °F 83% 30.16 in 10.0 mi Calm Calm - N/A   Unknown
9:15 AM 22.8 °F - 15.8 °F 74% 30.17 in 10.0 mi Calm Calm - N/A   Unknown
9:35 AM 25.2 °F - 15.8 °F 68% 30.17 in 10.0 mi Calm Calm - N/A   Unknown
9:55 AM 27.1 °F - 16.5 °F 64% 30.17 in 10.0 mi Calm Calm - N/A   Unknown
10:15 AM 30.6 °F - 16.7 °F 56% 30.17 in 10.0 mi Calm Calm - N/A   Unknown
10:35 AM 31.3 °F 26.6 °F 16.7 °F 55% 30.17 in 10.0 mi South 4.6 mph - N/A   Unknown
10:55 AM 32.2 °F 26.7 °F 17.6 °F 55% 30.17 in 10.0 mi SSW 5.8 mph - N/A   Unknown
11:15 AM 32.9 °F 28.5 °F 16.0 °F 50% 30.17 in 10.0 mi SSW 4.6 mph - N/A   Unknown
11:35 AM 33.8 °F 29.6 °F 18.0 °F 52% 30.17 in 10.0 mi SSW 4.6 mph - N/A   Unknown
11:55 AM 34.7 °F 29.6 °F 18.5 °F 52% 30.16 in 10.0 mi South 5.8 mph - N/A   Unknown
12:15 PM 36.1 °F 30.6 °F 17.8 °F 47% 30.16 in 10.0 mi South 6.9 mph - N/A   Unknown
12:35 PM 37.6 °F 34.0 °F 17.2 °F 44% 30.16 in 10.0 mi South 4.6 mph - N/A   Unknown
12:55 PM 38.1 °F 34.6 °F 16.2 °F 41% 30.16 in 10.0 mi South 4.6 mph - N/A   Unknown
1:15 PM 39.2 °F 35.9 °F 16.7 °F 40% 30.16 in 10.0 mi South 4.6 mph - N/A   Unknown
1:35 PM 40.1 °F - 16.5 °F 39% 30.16 in 10.0 mi Calm Calm - N/A   Unknown
1:55 PM 40.8 °F 37.8 °F 16.3 °F 37% 30.16 in 10.0 mi SSW 4.6 mph - N/A   Unknown
2:15 PM 41.4 °F 39.4 °F 14.2 °F 33% 30.16 in 10.0 mi SSW 3.5 mph - N/A   Unknown
2:35 PM 41.9 °F - 14.4 °F 33% 30.16 in 10.0 mi Calm Calm - N/A   Unknown
2:55 PM 41.9 °F - 13.5 °F 32% 30.17 in 10.0 mi Calm Calm - N/A   Unknown
3:15 PM 41.7 °F - 13.3 °F 32% 30.17 in 10.0 mi Calm Calm - N/A   Unknown
3:35 PM 42.1 °F - 12.0 °F 29% 30.17 in 10.0 mi Calm Calm - N/A   Unknown
3:55 PM 41.9 °F - 13.6 °F 32% 30.18 in 10.0 mi Calm Calm - N/A   Unknown
4:15 PM 40.8 °F 38.8 °F 13.1 °F 32% 30.19 in 10.0 mi SSE 3.5 mph - N/A   Unknown
4:35 PM 38.7 °F 36.3 °F 13.8 °F 36% 30.19 in 10.0 mi North 3.5 mph - N/A   Unknown
4:55 PM 37.6 °F - 14.2 °F 38% 30.20 in 10.0 mi Calm Calm - N/A   Unknown
5:15 PM 31.3 °F - 15.3 °F 52% 30.21 in 10.0 mi Calm Calm - N/A   Unknown
5:35 PM 30.2 °F - 16.3 °F 56% 30.21 in 10.0 mi Calm Calm - N/A   Unknown
5:55 PM 29.1 °F - 15.4 °F 57% 30.22 in 10.0 mi Calm Calm - N/A   Unknown
6:15 PM 28.2 °F - 14.2 °F 56% 30.23 in 10.0 mi Calm Calm - N/A   Unknown
6:35 PM 27.1 °F 20.7 °F 13.8 °F 57% 30.24 in 10.0 mi ENE 5.8 mph - N/A   Unknown
6:55 PM 28.8 °F - 13.1 °F 52% 30.24 in 10.0 mi Calm Calm - N/A   Unknown
7:15 PM 27.7 °F - 12.9 °F 54% 30.24 in 10.0 mi Calm Calm - N/A   Unknown
7:35 PM 26.4 °F - 13.5 °F 58% 30.25 in 10.0 mi Calm Calm - N/A   Unknown
7:55 PM 24.3 °F - 11.3 °F 58% 30.26 in 10.0 mi Calm Calm - N/A   Unknown
8:15 PM 23.9 °F - 12.2 °F 61% 30.26 in 10.0 mi Calm Calm - N/A Thunderstorm Unknown
8:35 PM 22.8 °F - 12.2 °F 64% 30.26 in 10.0 mi Calm Calm - N/A   Unknown
8:55 PM 24.8 °F - 10.6 °F 55% 30.26 in 10.0 mi Calm Calm - N/A   Unknown
9:15 PM 23.0 °F 18.4 °F 9.1 °F 55% 30.26 in 10.0 mi NW 3.5 mph - N/A   Unknown
9:35 PM 23.4 °F - 5.5 °F 47% 30.27 in 10.0 mi Calm Calm - N/A   Unknown
9:55 PM 18.3 °F - 4.6 °F 55% 30.27 in 10.0 mi Calm Calm - N/A   Unknown
10:15 PM 26.2 °F - -2.4 °F 29% 30.27 in 10.0 mi Calm Calm - N/A   Unknown
10:35 PM 19.8 °F - 0.5 °F 43% 30.28 in 10.0 mi Calm Calm - N/A   Unknown
10:55 PM 19.2 °F - 2.8 °F 49% 30.29 in 10.0 mi Calm Calm - N/A   Unknown
11:15 PM 18.3 °F 13.1 °F 3.6 °F 53% 30.30 in 10.0 mi NNE 3.5 mph - N/A   Unknown
11:35 PM 20.5 °F 14.0 °F 1.9 °F 45% 30.30 in 10.0 mi NNE 4.6 mph - N/A   Unknown
11:55 PM 19.0 °F - 4.1 °F 52% 30.31 in 10.0 mi Calm Calm - N/A   Unknown